GW5060 Weather Reports


time (UTC)temp
C
wind
direction
speed
KPH
gust
KPH
rain 1hr
cm
rain 24hr
cm
rain mn
cm
humidity
%
barometer
mb
20260506132537 18 111 16.1 27.4 0.00 1.70 1.57 81 1008.3
20260506132037 18 113 12.9 22.5 0.00 1.70 1.57 83 1008.4
20260506131549 18 98 14.5 29.0 0.00 1.70 1.57 82 1008.4
20260506131037 18 147 17.7 29.0 0.00 1.70 1.57 83 1008.3
20260506130537 18 125 17.7 32.2 0.00 1.70 1.57 83 1008.3
20260506130052 18 137 20.9 32.2 0.00 1.70 1.57 82 1008.5
20260506125537 18 104 16.1 25.7 0.00 1.70 1.57 83 1008.5
20260506125037 18 121 14.5 27.4 0.00 1.70 1.57 83 1008.5
20260506124553 18 73 14.5 30.6 0.00 1.70 1.57 83 1008.5
20260506124041 18 86 12.9 30.6 0.00 1.70 1.57 85 1008.5
20260506123538 18 103 16.1 30.6 0.00 1.70 1.57 84 1008.5
20260506123049 18 38 17.7 27.4 0.00 1.70 1.57 83 1008.6
20260506122538 18 105 12.9 24.1 0.00 1.70 1.57 84 1008.7
20260506122039 17 168 14.5 25.7 0.00 1.70 1.57 84 1008.7
20260506121548 17 112 14.5 25.7 0.00 1.70 1.57 84 1008.8
20260506121037 17 109 16.1 25.7 0.00 1.70 1.57 85 1008.8
20260506120538 17 88 14.5 27.4 0.00 1.70 1.57 85 1008.8
20260506120050 17 93 16.1 27.4 0.00 1.70 1.57 86 1008.8
20260506115541 17 127 14.5 27.4 0.00 1.70 1.57 87 1008.8
20260506115038 17 120 14.5 27.4 0.00 1.70 1.57 87 1008.8
20260506114547 17 102 17.7 27.4 0.00 1.70 1.57 89 1009.0
20260506114038 17 126 14.5 32.2 0.00 1.70 1.57 89 1008.9
20260506113537 16 130 16.1 32.2 0.00 1.70 1.57 88 1008.9
20260506113045 16 112 14.5 25.7 0.00 1.70 1.57 89 1009.0
20260506112538 16 135 16.1 29.0 0.00 1.70 1.57 89 1009.0
20260506112039 16 145 19.3 29.0 0.00 1.70 1.57 90 1008.9
20260506111547 16 110 16.1 29.0 0.00 1.70 1.57 91 1009.0
20260506111037 16 123 16.1 24.1 0.00 1.70 1.57 90 1009.0
20260506110538 16 147 16.1 27.4 0.00 1.70 1.57 90 1009.1
20260506110046 16 147 14.5 29.0 0.00 1.70 1.57 91 1009.1
20260506105538 16 138 12.9 32.2 0.00 1.70 1.57 91 1009.2
20260506105041 16 134 20.9 32.2 0.00 1.70 1.57 91 1009.2
20260506104555 16 129 17.7 29.0 0.00 1.70 1.57 93 1009.3
20260506104037 15 84 16.1 27.4 0.00 1.70 1.57 93 1009.2
20260506103537 15 169 12.9 24.1 0.00 1.70 1.57 94 1009.2
20260506103046 15 102 14.5 27.4 0.08 1.70 1.57 94 1009.3
20260506102540 15 82 14.5 27.4 0.25 1.70 1.57 93 1009.3
20260506102036 15 116 14.5 29.0 0.38 1.70 1.57 93 1009.4
20260506101548 15 82 16.1 37.0 0.43 1.70 1.57 94 1009.3
20260506101037 15 144 19.3 37.0 0.46 1.70 1.57 94 1009.4
20260506100537 15 85 19.3 33.8 0.56 1.70 1.57 95 1009.5
20260506100047 15 76 19.3 33.8 0.66 1.70 1.57 96 1009.3
20260506095538 14 102 16.1 33.8 0.76 1.70 1.57 96 1009.1
20260506095040 14 105 16.1 29.0 0.74 1.68 1.55 96 1009.1
20260506094600 14 59 11.3 41.8 0.76 1.68 1.55 96 1009.1
20260506094037 13 126 24.1 41.8 0.79 1.68 1.55 95 1009.1
20260506093537 14 117 16.1 27.4 0.79 1.68 1.52 96 1009.1
20260506093047 13 72 16.1 27.4 0.74 1.60 1.47 96 1009.4
20260506092537 13 105 17.7 27.4 0.56 1.42 1.30 96 1009.4
20260506092037 13 113 12.9 20.9 0.46 1.30 1.17 96 1009.5
20260506091548 13 98 12.9 20.9 0.41 1.27 1.12 95 1009.6
20260506091037 13 143 6.4 14.5 0.41 1.24 1.12 95 1009.8
20260506090538 13 119 1.6 9.7 0.36 1.12 0.99 95 1010.0
20260506090047 13 234 3.2 9.7 0.25 1.02 0.89 95 1010.2
20260506085537 13 227 1.6 17.7 0.15 1.02 0.79 95 1010.0
20260506085039 13 58 8.0 19.3 0.15 1.02 0.79 95 1009.6
20260506084550 13 63 8.0 20.9 0.13 1.02 0.76 95 1009.4
20260506084038 13 112 11.3 25.7 0.10 0.99 0.74 95 1009.2
20260506083538 13 121 14.5 27.4 0.08 0.97 0.74 95 1009.2
20260506083057 13 142 16.1 27.4 0.08 0.97 0.74 96 1009.2
20260506082537 13 109 14.5 27.4 0.08 0.94 0.71 96 1009.3
20260506082037 13 100 16.1 30.6 0.08 0.94 0.71 96 1009.2
20260506081547 13 78 14.5 30.6 0.08 0.94 0.71 96 1009.0
20260506081038 13 82 11.3 22.5 0.05 0.94 0.69 96 1009.3
20260506080537 13 111 12.9 25.7 0.00 0.86 0.64 96 1009.5
20260506080106 13 106 12.9 32.2 0.00 0.86 0.64 95 1009.6
20260506073103 13 107 16.1 29.0 0.00 1.02 0.64 96 1009.4
20260506072541 13 120 16.1 29.0 0.00 1.02 0.64 96 1009.4
20260506072036 13 137 16.1 29.0 0.00 1.02 0.64 96 1009.4
20260506071553 13 109 17.7 29.0 0.03 1.02 0.64 96 1009.4
20260506071037 13 113 12.9 22.5 0.03 1.02 0.64 96 1009.3
20260506070537 13 63 9.7 22.5 0.03 1.02 0.64 96 1009.3
20260506062036 13 117 11.3 20.9 0.00 1.04 0.61 96 1009.9
20260506061545 13 135 12.9 20.9 0.00 1.02 0.58 96 1009.8
20260506061038 13 134 9.7 19.3 0.00 1.02 0.58 96 1009.9
20260506060537 12 144 9.7 19.3 0.00 1.02 0.58 96 1010.0
20260506051036 12 133 6.4 16.1 0.20 1.02 0.58 96 1009.8
20260506050537 12 104 6.4 14.5 0.28 1.02 0.58 96 1009.8
20260506045037 12 103 4.8 11.3 0.43 1.02 0.58 96 1010.1
20260506044551 12 79 3.2 8.0 0.43 1.02 0.56 95 1010.4
20260506044038 12 126 3.2 8.0 0.46 1.02 0.56 95 1010.7
20260506043537 12 176 1.6 8.0 0.48 1.02 0.56 95 1010.6
20260506043050 12 239 1.6 16.1 0.48 0.99 0.56 96 1010.2
20260506042538 12 119 6.4 16.1 0.43 0.94 0.48 96 1009.9
20260506042036 12 121 8.0 14.5 0.41 0.89 0.46 95 1009.6
20260506041554 12 117 6.4 14.5 0.41 0.86 0.43 95 1009.8
20260506041037 13 90 6.4 12.9 0.36 0.81 0.36 95 1010.2
20260506040538 13 130 6.4 11.3 0.28 0.74 0.30 95 1010.6
20260506040052 12 140 3.2 6.4 0.23 0.69 0.25 95 1010.6
20260506035538 12 0 1.6 6.4 0.18 0.64 0.20 95 1010.7
20260506035038 12 155 1.6 11.3 0.13 0.58 0.15 95 1010.7
20260506034552 12 134 3.2 11.3 0.10 0.56 0.13 95 1010.5
20260506034038 12 124 6.4 12.9 0.08 0.53 0.08 95 1010.4
20260506033538 13 137 6.4 12.9 0.05 0.51 0.08 95 1010.4
20260506033120 13 142 8.0 12.9 0.03 0.48 0.05 95 1010.5
20260506032538 13 136 8.0 14.5 0.00 0.46 0.03 94 1010.6
20260506032035 13 112 6.4 14.5 0.00 0.46 0.03 94 1010.5
20260506031547 13 146 6.4 11.3 0.00 0.46 0.00 94 1010.7
20260506031040 13 153 1.6 6.4 0.00 0.46 0.00 94 1010.6
20260506030537 13 92 3.2 6.4 0.00 0.46 0.00 94 1010.6
20260506030058 13 44 1.6 8.0 0.00 0.46 0.00 94 1010.6
20260506025537 13 70 4.8 8.0 0.00 0.46 0.00 94 1010.6
20260506025037 13 153 3.2 9.7 0.00 0.46 0.00 94 1010.7
20260506024607 13 105 4.8 9.7 0.00 0.46 0.00 94 1010.7
20260506024038 13 119 3.2 8.0 0.00 0.46 0.00 94 1010.8
20260506023536 13 93 1.6 11.3 0.00 0.46 0.00 94 1010.9
20260506023100 13 144 1.6 11.3 0.00 0.46 0.00 94 1011.1
20260506022537 13 114 4.8 11.3 0.00 0.46 0.00 94 1011.2
20260506022038 13 135 4.8 11.3 0.00 0.46 0.00 94 1011.4
20260506021557 13 111 6.4 11.3 0.00 0.46 0.00 94 1011.3
20260506021038 13 102 4.8 14.5 0.00 0.46 0.00 94 1011.4
20260506020535 13 92 8.0 14.5 0.00 0.46 0.00 94 1011.3
20260506020044 13 101 8.0 14.5 0.00 0.46 0.00 94 1011.3
20260506015535 13 114 6.4 17.7 0.00 0.46 0.00 94 1011.4
20260506015035 13 136 6.4 17.7 0.00 0.46 0.00 94 1011.5
20260506014547 13 111 6.4 14.5 0.00 0.46 0.00 94 1011.6
20260506014036 13 136 8.0 14.5 0.00 0.46 0.00 93 1011.5
20260506013537 13 134 8.0 16.1 0.00 0.46 0.00 93 1011.6
20260506013048 13 136 9.7 16.1 0.00 0.46 0.00 93 1011.5
20260506012537 13 132 8.0 14.5 0.00 0.46 0.00 93 1011.4
20260506012036 13 120 6.4 12.9 0.00 0.46 0.00 93 1011.6
20260506011609 13 123 6.4 11.3 0.00 0.46 0.00 93 1011.7
20260506011038 13 132 3.2 11.3 0.00 0.46 0.00 93 1011.7
20260506010538 13 126 4.8 11.3 0.00 0.46 0.00 93 1011.5
20260506005536 13 85 1.6 14.5 0.00 0.46 0.00 93 1011.6
20260506005040 13 74 8.0 14.5 0.00 0.46 0.00 93 1011.4
20260506004546 13 93 4.8 12.9 0.00 0.46 0.00 93 1011.5
20260506004035 13 79 3.2 12.9 0.00 0.46 0.00 93 1011.7
20260506003535 13 94 4.8 12.9 0.00 0.46 0.00 93 1011.7
20260506003047 13 138 6.4 14.5 0.00 0.46 0.00 93 1011.8
20260506002537 13 149 4.8 14.5 0.00 0.46 0.00 93 1011.9
20260506002035 13 128 6.4 14.5 0.00 0.46 0.00 93 1012.0
20260506001551 13 118 4.8 14.5 0.00 0.46 0.00 93 1012.0
20260506001036 13 130 4.8 14.5 0.00 0.46 0.00 93 1012.0
20260506000535 13 140 8.0 14.5 0.00 0.46 0.00 93 1012.1
20260506000054 13 132 4.8 11.3 0.00 0.46 0.00 93 1012.1
20260505235535 13 129 4.8 11.3 0.00 0.46 0.00 93 1012.3
20260505235036 13 136 3.2 11.3 0.00 0.46 0.00 93 1012.4
20260505234544 13 135 4.8 11.3 0.00 0.46 0.00 93 1012.5
20260505234038 13 135 6.4 11.3 0.00 0.46 0.00 93 1012.6
20260505233536 13 134 4.8 11.3 0.00 0.46 0.00 93 1012.6
20260505233042 13 125 4.8 8.0 0.00 0.46 0.00 93 1012.4
20260505232537 13 135 4.8 6.4 0.00 0.46 0.00 93 1012.5
20260505232039 13 117 3.2 6.4 0.00 0.46 0.00 93 1012.5
20260505231543 13 138 3.2 6.4 0.00 0.46 0.00 93 1012.5
20260505231036 13 132 1.6 3.2 0.00 0.46 0.00 93 1012.5
20260505230537 13 55 0.0 3.2 0.00 0.46 0.00 93 1012.5
20260505230045 13 0 0.0 4.8 0.00 0.46 0.00 92 1012.5
20260505225538 13 0 0.0 4.8 0.00 0.46 0.00 92 1012.5
20260505225038 13 48 1.6 4.8 0.00 0.46 0.00 92 1012.4
20260505224546 13 33 0.0 3.2 0.00 0.46 0.00 92 1012.4
20260505224039 13 0 0.0 3.2 0.00 0.46 0.00 92 1012.6
20260505223534 13 38 1.6 4.8 0.00 0.46 0.00 92 1012.4
20260505223045 13 0 0.0 4.8 0.00 0.46 0.00 92 1012.5
20260505222537 13 67 1.6 3.2 0.00 0.46 0.00 92 1012.5
20260505222037 13 92 0.0 3.2 0.00 0.46 0.00 92 1012.7
20260505221554 13 92 1.6 3.2 0.00 0.46 0.00 92 1012.7
20260505221037 13 0 0.0 3.2 0.00 0.43 0.00 91 1012.7
20260505220536 13 92 0.0 1.6 0.00 0.43 0.00 91 1012.8
20260505220055 13 0 0.0 3.2 0.00 0.43 0.00 91 1012.8
20260505215537 13 0 0.0 3.2 0.00 0.43 0.43 91 1012.8
20260505215035 13 92 0.0 3.2 0.00 0.43 0.43 91 1012.7
20260505214552 13 0 0.0 3.2 0.00 0.43 0.43 91 1012.8
20260505214038 14 0 0.0 4.8 0.00 0.43 0.43 91 1012.9
20260505213539 14 79 0.0 4.8 0.00 0.43 0.43 91 1012.9
20260505213048 14 80 1.6 4.8 0.00 0.43 0.43 91 1012.9
20260505212538 14 110 1.6 4.8 0.00 0.43 0.43 91 1013.0
20260505212038 14 119 1.6 4.8 0.00 0.43 0.43 91 1013.0
20260505211545 14 98 0.0 3.2 0.03 0.43 0.43 91 1013.2
20260505211037 14 0 0.0 3.2 0.08 0.43 0.43 91 1013.2
20260505210536 14 62 0.0 3.2 0.08 0.43 0.43 91 1013.3
20260505210051 14 0 0.0 3.2 0.08 0.43 0.43 90 1013.4
20260505205601 14 74 0.0 4.8 0.10 0.43 0.43 90 1013.3
20260505205039 14 58 0.0 6.4 0.13 0.43 0.43 90 1013.1
20260505204555 14 65 1.6 6.4 0.13 0.43 0.43 90 1013.1
20260505204035 14 39 1.6 6.4 0.13 0.43 0.43 90 1013.3
20260505203540 15 84 3.2 6.4 0.13 0.43 0.43 90 1013.3
20260505203049 15 86 1.6 6.4 0.13 0.43 0.43 90 1013.3
20260505202536 15 360 0.0 4.8 0.13 0.43 0.43 89 1013.4
20260505202038 15 360 1.6 4.8 0.10 0.41 0.41 89 1013.4
20260505201548 15 352 1.6 4.8 0.08 0.38 0.38 89 1013.4
20260505201036 15 29 0.0 3.2 0.05 0.36 0.36 89 1013.4
20260505200536 15 0 0.0 4.8 0.03 0.33 0.33 89 1013.4
20260505200046 15 0 1.6 4.8 0.03 0.33 0.33 88 1013.3
20260505195538 15 0 1.6 6.4 0.00 0.30 0.30 88 1013.2
20260505195038 15 86 1.6 11.3 0.00 0.28 0.28 88 1013.2
20260505194556 15 92 3.2 11.3 0.00 0.28 0.28 88 1013.1
20260505194040 15 89 6.4 11.3 0.00 0.28 0.28 88 1013.1
20260505193536 15 65 4.8 8.0 0.00 0.28 0.28 88 1013.0
20260505193047 15 76 4.8 8.0 0.00 0.28 0.28 88 1013.0
20260505192537 15 79 1.6 6.4 0.00 0.28 0.28 87 1013.1
20260505192036 15 82 3.2 11.3 0.00 0.28 0.28 87 1013.0
20260505191548 15 80 4.8 11.3 0.00 0.28 0.28 87 1013.0
20260505191037 15 99 1.6 9.7 0.00 0.28 0.28 88 1013.0
20260505190538 15 147 3.2 9.7 0.00 0.28 0.28 88 1013.0
20260505190046 15 88 1.6 4.8 0.00 0.28 0.28 88 1013.0
20260505185537 15 0 1.6 4.8 0.00 0.28 0.28 88 1013.0
20260505185041 15 111 1.6 6.4 0.00 0.28 0.28 88 1013.0
20260505184552 15 88 1.6 6.4 0.00 0.28 0.28 88 1012.8
20260505184038 15 139 3.2 9.7 0.00 0.28 0.28 88 1012.9
20260505183540 15 88 3.2 9.7 0.00 0.28 0.28 88 1012.9
20260505183054 15 80 1.6 11.3 0.00 0.28 0.28 88 1012.9
20260505182538 15 94 3.2 11.3 0.00 0.28 0.28 88 1012.9
20260505182038 15 89 3.2 9.7 0.00 0.28 0.28 88 1012.8
20260505181555 15 86 4.8 9.7 0.00 0.28 0.28 88 1012.8
20260505181037 15 109 3.2 9.7 0.00 0.28 0.28 88 1012.8
20260505180537 15 118 3.2 9.7 0.00 0.28 0.28 88 1012.9
20260505180053 15 138 3.2 9.7 0.00 0.28 0.28 88 1012.8
20260505175537 15 90 1.6 8.0 0.00 0.28 0.28 87 1012.9
20260505175038 15 103 3.2 8.0 0.00 0.28 0.28 87 1012.9
20260505174551 15 84 4.8 11.3 0.00 0.28 0.28 87 1012.8
20260505174038 15 62 3.2 11.3 0.00 0.28 0.28 87 1012.8
20260505173538 15 87 3.2 11.3 0.00 0.28 0.28 87 1012.9
20260505173047 15 74 3.2 12.9 0.00 0.28 0.28 87 1012.8
20260505172538 15 86 4.8 12.9 0.00 0.28 0.28 87 1012.8
20260505172037 15 69 8.0 12.9 0.00 0.28 0.28 87 1012.8
20260505171550 15 70 6.4 12.9 0.00 0.28 0.28 87 1012.8
20260505171037 15 90 6.4 14.5 0.00 0.28 0.28 87 1012.7
20260505170536 15 102 4.8 14.5 0.00 0.28 0.28 87 1012.8
20260505170051 15 78 4.8 14.5 0.00 0.28 0.28 87 1012.9
20260505165538 15 94 6.4 14.5 0.00 0.28 0.28 87 1012.8
20260505165038 15 99 6.4 14.5 0.00 0.28 0.28 88 1012.9
20260505164557 15 78 4.8 16.1 0.00 0.28 0.28 88 1012.8
20260505164038 15 96 6.4 16.1 0.00 0.28 0.28 88 1012.9
20260505163536 15 89 6.4 16.1 0.00 0.28 0.28 87 1012.9
20260505163048 15 89 9.7 16.1 0.00 0.28 0.28 87 1013.0
20260505162536 15 78 9.7 19.3 0.00 0.28 0.28 87 1013.0
20260505162036 15 51 11.3 19.3 0.00 0.28 0.28 87 1013.1
20260505161555 15 80 9.7 16.1 0.00 0.28 0.28 87 1013.1
20260505161038 15 77 8.0 14.5 0.00 0.28 0.28 87 1013.1
20260505160537 15 115 6.4 14.5 0.00 0.28 0.28 87 1013.0
20260505153050 15 81 8.0 14.5 0.00 0.28 0.28 88 1013.1
20260505152539 15 75 6.4 12.9 0.00 0.28 0.28 88 1013.1
20260505152036 15 139 6.4 12.9 0.00 0.28 0.28 88 1013.1
20260505151547 14 94 6.4 12.9 0.00 0.28 0.28 88 1013.2
20260505151039 14 123 4.8 14.5 0.00 0.28 0.28 88 1013.2
20260505150537 14 121 6.4 14.5 0.00 0.28 0.28 88 1013.3
20260505140542 14 116 8.0 16.1 0.00 0.28 0.28 89 1013.4